Location: Bissegem
(50.8205°N, 3.2292°E)
Time: 09:00:13
(UTC+00:00)

Daily predictions for brighter satellites

Satellite Brightness Start Highest point End
(mag) Time Altitude Azimuth Time Altitude Azimuth Time Altitude Azimuth
PAYLOAD B 4.2 17:54:49 10° SSE 18:00:20 81° ENE 18:05:51 10° NNW
Cosmos 1140 Rocket 4.2 17:55:21 10° SW 18:00:24 59° WNW 18:05:31 10° NNE
Cosmos 468 Rocket 4.0 17:55:23 10° NNW 18:00:34 82° ENE 18:05:45 10° SSE
Cosmos 2297 Rocket 3.4 17:56:01 10° NW 18:01:25 47° WSW 18:06:48 10° S
Okean O Rocket 2.0 17:57:28 10° SE 18:01:32 41° ENE 18:05:40 10° N
SJ-6B 4.4 18:02:52 10° E 18:05:15 16° ENE 18:07:38 10° NNE
Cosmos 1980 Rocket 2.9 18:00:36 10° SSE 18:05:27 31° ESE 18:10:19 10° NE
ATLAS 2AS CENTAUR R/B 4.0 18:00:32 10° W 18:07:41 41° NNW 18:14:30 10° NE
ASTEX 1 3.5 18:02:45 10° NNE 18:07:41 59° E 18:12:35 10° S
CZ-4C R/B 4.4 18:03:56 10° N 18:08:12 55° WNW 18:12:18 10° SSW
SKYMED 3 4.4 18:04:27 10° NNE 18:08:35 72° ESE 18:12:40 10° S
Cosmos 1626 2.2 18:06:59 10° NNW 18:10:39 82° W 18:14:15 10° S
Cosmos 2369 4.3 18:05:40 10° S 18:10:48 36° ESE 18:15:59 10° NE
USA 229 DEB 4.1 18:05:45 10° NW 18:13:04 86° SW 18:20:56 10° SE
USA 229 4.1 18:05:50 10° NW 18:13:09 86° SW 18:21:01 10° SE
Cosmos 540 Rocket 3.4 18:10:17 10° NNW 18:15:26 81° ENE 18:20:32 10° SSE
Cosmos 1674 Rocket 4.0 18:14:03 10° N 18:18:13 41° ENE 18:22:23 10° SE
SKYMED 2 3.8 18:14:58 10° NNE 18:19:21 77° WNW 18:23:40 10° SSW
YAOGAN 1 2.5 18:15:32 10° SSE 18:19:49 71° ENE 18:24:09 10° N
Cosmos 841 Rocket 3.5 18:17:22 10° NNW 18:22:33 63° ENE 18:27:39 10° SE
SL-4 R/B 2.3 18:18:32 10° W 18:22:58 82° N 18:27:05 13° E
Cosmos 1850 Rocket 4.5 18:18:24 10° S 18:23:09 37° ESE 18:27:58 10° NE
SL-16 R/B 3.8 18:21:16 10° ESE 18:23:15 12° E 18:25:14 10° ENE
Cosmos 1437 Rocket 4.4 18:24:58 13° E 18:25:17 13° E 18:27:09 10° ENE
OBJECT-B 1.6 18:25:24 15° ESE 18:26:40 22° ENE 18:28:45 10° NNE
Cosmos 1954 Rocket 4.1 18:25:04 10° SSW 18:30:14 79° WNW 18:35:27 10° NNE
Cosmos 1844 Rocket 4.1 18:26:20 10° NNW 18:30:45 22° NE 18:34:20 13° E
Cosmos 1763 Rocket 4.4 18:26:29 10° NNW 18:31:23 50° WSW 18:36:16 10° S
Cosmos 2279 Rocket 4.0 18:25:37 10° N 18:31:55 90° W 18:38:11 10° S
Meteor 2-10 4.3 18:27:22 10° S 18:32:50 51° E 18:38:11 10° NNE
H-2A R/B 4.1 18:32:31 14° E 18:33:43 16° ENE 18:36:04 10° NNE
ISS -3.7 18:30:56 10° WNW 18:34:18 73° SSW 18:36:41 18° ESE
Cosmos 2180 Rocket 4.5 18:28:45 10° N 18:35:00 76° E 18:41:17 10° SSE
Cosmos 2221 Rocket 3.6 18:30:37 10° N 18:35:09 78° E 18:39:41 10° SSE
Cosmos 2219 4.4 18:32:08 10° NW 18:37:38 46° WSW 18:43:04 10° S
SL-14 R/B 3.2 18:35:30 10° N 18:39:27 76° E 18:43:25 10° SSE
Aureole 1 4.1 18:38:48 10° SSW 18:41:48 80° ESE 18:45:14 10° NNE
Meteor 2-5 Rocket 4.3 18:36:57 10° N 18:42:04 36° ENE 18:46:13 14° SE
Cosmos 1975 Rocket 4.4 18:38:52 10° NNE 18:42:15 21° ENE 18:43:37 18° E
IRIDIUM 104 4.4 18:38:03 10° SSE 18:43:06 54° E 18:48:12 10° NNE
Resurs 01 Rocket 3.2 18:42:03 16° E 18:43:19 18° ENE 18:46:15 10° NNE
HJ-1C 3.6 18:40:38 10° S 18:43:44 64° W 18:46:50 10° NNW
NOSS 7 (H) 4.4 18:43:59 10° NW 18:47:08 89° NE 18:50:04 17° SE
Cosmos 2360 4.4 18:41:47 10° SSW 18:47:32 79° WNW 18:53:18 10° NNE
Cosmos 2227 4.4 18:42:16 10° NNW 18:47:47 53° NE 18:52:01 17° SE
Cosmos 1378 Rocket 3.5 18:43:45 10° N 18:48:11 77° E 18:52:31 10° SSE
Cosmos 1805 3.1 18:44:30 10° S 18:48:23 85° E 18:52:18 10° NNE
Cosmos 2263 Rocket 2.2 18:42:45 10° NNW 18:48:29 80° ENE 18:54:12 10° SSE
USA 186 2.1 18:49:21 20° SE 18:51:17 44° ENE 18:54:27 10° N
Cosmos 1741 Rocket 4.0 18:46:10 10° S 18:51:21 59° ESE 18:56:32 10° NNE
USA 215 3.6 18:45:06 10° ENE 18:51:34 64° NNW 18:58:01 10° W
IRIDIUM 114 4.3 18:47:06 10° S 18:52:14 64° E 18:57:25 10° N
IGS 5A 3.7 18:53:35 17° SE 18:56:33 48° ENE 19:00:34 10° N
Cosmos 2082 4.4 18:51:42 10° NW 18:57:19 57° WSW 19:02:54 10° S
ARGOS Delta rocket 4.5 18:54:55 10° N 19:00:17 68° WNW 19:05:24 10° SSW
Cosmos 1733 Rocket 3.4 18:56:01 10° SSW 19:00:26 71° WNW 19:04:55 10° N
Cosmos 1766 3.2 18:57:01 10° S 19:00:51 58° E 19:04:43 10° NNE
IRIDIUM 103 4.2 18:56:11 10° S 19:01:22 76° E 19:06:37 10° N
Meteor 2-14 Rocket 4.3 18:55:37 10° S 19:01:39 78° E 19:07:44 10° NNE
Cosmos 1814 Rocket 3.9 18:57:46 10° NNW 19:03:04 71° ENE 19:07:02 17° SE
Cosmos 1242 Rocket 3.3 18:59:41 10° SSW 19:03:11 54° WNW 19:06:41 10° N
Okean-O 2.7 19:00:42 18° SE 19:03:51 56° ENE 19:08:11 10° N
Cosmos 1726 1.9 19:02:29 10° S 19:06:06 84° E 19:09:47 10° NNE
Resurs 1-3 3.8 19:05:39 25° SE 19:07:53 49° ENE 19:12:09 10° N
Cosmos 1697 Rocket 3.4 19:03:52 10° SW 19:09:23 56° NW 19:14:57 10° NNE
CSL-04 Debris 4.1 19:06:45 10° SSE 19:12:10 82° ENE 19:17:36 10° NNW
Cosmos 2084 3.1 19:11:47 10° SW 19:15:35 83° NW 19:18:22 18° NE
USA-17 4.3 19:12:27 10° NW 19:15:37 88° NE 19:16:45 42° SE
IRS-1C Rocket 4.0 19:12:10 17° SSE 19:16:16 70° ENE 19:21:31 10° NNW
Meteor 2-21 Rocket 4.3 19:11:29 10° S 19:17:31 73° E 19:23:33 10° NNE
IRIDIUM 106 4.4 19:14:27 10° S 19:19:41 79° W 19:24:56 10° N
USA 281 4.4 19:20:05 21° ENE 19:22:43 27° NE 19:27:59 10° NNW
Cosmos 489 Rocket 4.4 19:16:56 10° S 19:23:11 65° ESE 19:29:28 10° NNE
SPOT 1/Viking Rocket 4.0 19:22:41 34° E 19:24:02 40° ENE 19:28:50 10° N
Cosmos 1470 3.3 19:28:31 40° ENE 19:28:31 40° ENE 19:31:26 10° NNE
CZ-4 R/B 3.2 19:25:38 10° SSW 19:29:24 33° W 19:33:13 10° NNW
Cosmos 2285 Rocket 4.1 19:26:11 10° NNW 19:32:33 81° WSW 19:37:15 19° SSE
CRYOSAT 2 4.2 19:29:51 21° SSE 19:33:10 79° E 19:38:05 10° N
MINOTAUR IV R/B 4.4 19:29:22 10° SSW 19:33:53 76° ESE 19:38:24 10° NNE
Meteor 2-16 Rocket 4.3 19:29:14 10° S 19:35:22 83° E 19:41:33 10° NNE
Meteor 1-12 Rocket 4.3 19:29:36 10° S 19:35:37 89° WNW 19:41:41 10° NNE
deb Chang Zheng 4 3.4 19:35:01 56° ESE 19:35:38 65° ENE 19:39:44 10° N
Okean O Rocket 3.8 19:34:24 10° SSW 19:38:02 25° W 19:41:42 10° NW
BREEZE M DEB (TANK) 4.2 19:35:31 10° SSW 19:38:08 19° S 19:38:08 19° S
SJ-6B 3.3 19:37:26 24° S 19:39:26 54° W 19:43:09 10° NNW
Cosmos 2322 Rocket 4.1 19:43:56 14° NE 19:43:56 14° NE 19:44:50 10° NE
Cosmos 2026 Rocket 3.9 19:34:05 10° S 19:40:02 62° E 19:46:01 10° NNE
JB-3 4.2 19:36:54 10° NNE 19:41:00 78° E 19:42:18 42° S
Cosmos 1553 Rocket 4.2 19:36:32 10° N 19:42:42 51° ENE 19:44:28 40° ESE
CSL-04 Rocket 3.9 19:38:43 14° S 19:43:20 66° WSW 19:48:43 10° NNW
Cosmos 1908 Rocket 3.7 19:39:25 10° SSW 19:43:43 71° WNW 19:48:04 10° N
Nadezhda 4 Rocket 4.4 19:40:26 10° SSW 19:46:43 66° WNW 19:53:02 10° N
MetOp-A 3.1 19:48:59 78° NE 19:48:59 78° NE 19:52:45 10° NNW
Cosmos 1980 Rocket 2.9 19:43:40 10° SW 19:49:11 55° NW 19:54:44 10° NNE
Cosmos 968 Rocket 3.4 19:45:51 10° SSW 19:51:03 68° ESE 19:56:17 10° NNE
Cosmos 1782 Rocket 3.3 19:50:50 72° SSE 19:51:10 78° E 19:55:32 10° NNE
Landsat 5 4.2 19:49:37 10° N 19:54:04 60° WNW 19:58:28 10° SSW
OBJECT-B 3.1 19:56:16 15° WSW 19:56:45 16° W 19:58:27 10° NW
Meteor 1-24 Rocket 3.7 19:52:50 10° NNW 19:58:08 73° W 20:00:31 33° S
Landsat 7 4.1 19:58:03 34° S 19:59:56 62° WSW 20:04:39 10° NNW
ATLAS 2AS CENTAUR R/B 4.3 19:54:07 10° WNW 20:00:32 30° N 20:05:21 15° NE
Cosmos 1437 Rocket 3.2 20:00:08 45° SW 20:00:58 57° WNW 20:04:41 10° N
Spot 2 3.9 20:01:39 76° N 20:01:39 76° N 20:05:37 10° NNW
Ariane Rocket 3.2 20:02:33 53° ENE 20:02:33 53° ENE 20:07:22 10° N
Cosmos 2278 3.9 19:56:45 10° SW 20:02:26 72° WNW 20:08:08 10° NNE
SL-4 R/B 2.6 19:57:59 10° WNW 20:02:27 55° SSW 20:02:29 55° SSW
SL-16 R/B 2.0 20:00:39 10° SSW 20:06:15 67° ESE 20:11:54 10° NE
ERS-1 Rocket 4.3 20:07:59 26° NE 20:07:59 26° NE 20:11:14 10° N
H-2A R/B 2.7 20:08:58 64° WNW 20:08:58 64° WNW 20:12:36 10° NNW
Meteor 1-22 Rocket 4.2 20:04:11 10° SSW 20:09:33 76° WNW 20:15:10 10° N
ISS -1.3 20:08:03 10° W 20:09:34 18° WSW 20:09:34 18° WSW
MOS 1 4.2 20:10:29 56° SSE 20:11:46 88° WSW 20:17:29 10° NNW
NOSS 3-4 (A) 4.4 20:06:27 10° NW 20:12:39 42° NNE 20:14:38 35° ENE
NOSS 3-4 (C) 4.4 20:06:33 10° NW 20:12:45 42° NNE 20:14:44 35° ENE
Cosmos 1025 Rocket 3.4 20:10:39 10° NNW 20:14:53 61° W 20:14:56 61° W
Cosmos 1844 Rocket 2.5 20:09:48 10° NNW 20:15:31 84° ENE 20:16:00 75° SE
Cosmos 2278 Rocket 3.8 20:12:48 10° NNW 20:17:07 22° NE 20:17:26 21° NE
Resurs 01 Rocket 1.8 20:19:37 68° WNW 20:19:37 68° WNW 20:23:45 10° NNW
Cosmos 1975 Rocket 3.7 20:16:06 10° NNW 20:20:26 51° W 20:20:46 50° WSW
Terra 3.5 20:23:50 23° NNE 20:23:50 23° NNE 20:26:13 10° N
Cosmos 1092 Rocket 4.4 20:16:27 10° SSW 20:22:42 63° WNW 20:28:57 10° N
Cosmos 2084 Rocket 4.4 20:19:26 10° NW 20:21:58 40° NW 20:21:58 40° NW
Cosmos 836 Rocket 4.4 20:19:39 10° NNW 20:24:57 85° W 20:24:57 85° W
SPOT 5 4.0 20:32:25 36° NNE 20:32:25 36° NNE 20:35:31 10° N
Cosmos 1943 Rocket 4.3 20:28:50 10° N 20:31:30 13° NNE 20:32:30 13° NE
Cosmos 2263 Rocket 4.4 20:27:44 10° NW 20:31:45 20° W 20:35:47 10° SW
Cosmos 1844 3.6 20:28:19 10° NNW 20:33:43 83° WNW 20:33:43 83° WNW
USA 215 3.8 20:31:46 36° NE 20:34:08 53° N 20:40:27 10° WNW
S3M 3.9 20:44:53 10° N 20:50:55 82° NNW 20:50:55 82° NNW
MetOp-B 4.5 20:52:36 62° WNW 20:52:36 62° WNW 20:57:24 10° NNW
Cosmos 2266 Rocket 4.5 20:57:54 52° NNE 20:57:54 52° NNE 21:02:42 10° NNE
Cosmos 2360 Rocket 4.3 21:02:36 16° NNE 21:02:36 16° NNE 21:03:35 10° NNE
USA 281 3.2 21:06:58 78° N 21:06:58 78° N 21:13:07 10° NNW
SPOT 3 Rocket 4.5 21:08:39 45° NW 21:08:39 45° NW 21:12:19 10° NNW
SeaSat 1 4.4 21:21:50 23° N 21:21:50 23° N 21:24:14 10° NNW
Gbstr 26 Del rocket 4.4 21:14:48 10° W 21:22:31 83° W 21:22:31 83° W
Cosmos 2322 Rocket 3.5 21:25:40 36° N 21:25:40 36° N 21:29:14 10° NNE
SL-16 R/B 3.9 21:45:55 10° WSW 21:50:51 30° NW 21:55:48 10° NNE
ATLAS 2AS CENTAUR R/B 3.6 21:46:22 10° NW 21:52:45 43° NNE 21:52:45 43° NNE
Terra 4.2 22:02:43 20° NW 22:02:43 20° NW 22:04:17 10° NNW
Cosmos 2278 Rocket 3.8 21:56:25 10° NNW 21:59:16 31° NNW 21:59:16 31° NNW
NOSS 3-4 (A) 4.4 21:57:17 10° NW 22:02:03 49° WNW 22:02:03 49° WNW
NOSS 3-4 (C) 4.4 21:57:24 10° NW 22:02:09 49° WNW 22:02:09 49° WNW
Cosmos 2333 Rocket 4.4 22:20:12 20° NNE 22:20:12 20° NNE 22:21:57 10° NNE
USA 215 4.2 22:19:07 43° NW 22:19:07 43° NW 22:23:21 10° WNW
Cosmos 2369 Rocket 4.3 22:12:24 10° NNW 22:15:21 20° NNE 22:15:21 20° NNE
Cosmos 1943 Rocket 4.1 22:11:39 10° NNW 22:14:00 23° N 22:14:00 23° N
Cosmos 2360 Rocket 4.3 22:44:19 22° NNW 22:44:19 22° NNW 22:47:16 10° NNE
ATLAS 2AS CENTAUR R/B 4.5 23:37:37 10° NW 23:40:09 24° NW 23:40:09 24° NW
